BEIDOU-3S IGSO-1S

Last updated on Tue Sep 22 2026 00:03:13 GMT+0000 (Coordinated Universal Time)

1 40549U 15019A 26262.79717725 -.00000146 00000+0 00000+0 0 9991 2 40549 49.0150 294.3135 0038844 201.2784 246.2355 1.00288094 42028
UTC large
Height (km)
Speed (km/s)
/
Latitude / Longitude
Inclination (degrees)
Orbital Period (minutes)
Azimuth
Elevation
Range (km)
Doppler Factor

Next 0 passes for location: London (51.5072 / 0.1276)

No passes found over London.
BEIDOU-3S IGSO-1S